RH
10 11 11 12 11 10 9 8 8 8 8 8 8 8 8 8 9 9 8 7 7 8 10 14 19 24 27 31 32 34 32 34 37 37 37 40 40 50 51 51 53 51 27 36 40 57 43
11 12 12 12 13 12 12 12 11 11 11 10 10 10 10 10 10 10 9 8 8 11 13 19 24 28 30 33 35 37 38 39 38 39 43 45 49 62 56 63 70 49 59 58 51 42 51
12 12 13 13 14 13 13 13 14 14 14 13 12 12 12 12 13 12 10 9 10 12 17 23 28 31 34 35 35 38 36 36 37 42 45 56 66 78 85 95 94 80 72 69 52 54 59
8 10 11 12 12 14 15 13 12 11 12 14 14 14 14 15 15 14 11 10 12 13 19 27 30 34 36 36 40 36 30 38 47 52 55 61 60 77 83 90 99 93 85 83 59 62 59
7 7 8 9 10 10 10 12 11 10 8 10 12 14 15 17 18 15 12 14 12 14 22 31 34 36 40 40 37 36 39 47 49 63 76 65 61 86 100 99 100 99 98 88 75 69 73
5 8 8 7 7 8 9 9 8 8 8 7 8 12 15 18 20 16 15 15 14 16 25 36 37 39 40 39 38 40 47 51 60 65 70 72 91 96 98 100 98 97 99 84 94 80 76
4 5 6 7 8 8 8 8 8 7 7 6 7 10 14 19 21 16 16 14 18 21 27 37 36 42 46 43 42 46 48 53 59 68 100 100 100 89 82 82 86 97 96 96 86 75 81
3 4 6 7 6 6 6 7 7 7 7 7 7 10 14 18 21 18 17 15 15 20 30 36 38 42 42 47 40 44 52 53 65 73 99 98 84 78 94 97 92 92 95 93 77 73 83
5 3 4 6 8 8 8 7 7 7 7 7 7 8 11 17 21 17 17 17 13 18 32 38 41 45 49 47 43 48 50 51 69 77 90 97 71 83 97 97 97 88 81 67 65 63 78
22 6 4 4 5 7 6 6 6 8 8 8 8 7 10 17 16 18 17 16 14 22 40 41 43 50 52 46 48 50 50 65 89 97 99 82 87 97 98 97 98 96 79 92 98 98 95
85 34 7 5 4 3 5 5 5 6 7 7 9 8 8 13 19 19 18 16 17 33 59 43 45 52 56 63 58 58 63 68 89 94 100 96 90 99 98 97 99 94 98 96 97 98 98
84 79 44 8 5 4 3 3 4 5 6 7 8 9 9 15 19 20 20 18 24 44 50 42 49 56 65 68 63 56 66 78 88 83 78 77 97 99 89 99 95 99 98 98 98 98 97
62 75 81 51 9 5 4 4 4 4 5 7 8 9 10 13 19 22 21 21 32 40 27 47 51 58 66 68 66 73 78 79 92 99 82 74 82 86 84 87 96 98 98 95 97 98 92
94 86 77 85 70 10 6 5 4 4 5 6 8 9 12 16 19 23 23 25 31 28 25 43 55 58 69 74 73 76 76 80 81 90 96 97 84 83 82 80 81 83 94 98 96 96 77
92 89 100 82 93 81 9 6 5 5 5 5 8 10 12 18 21 24 26 27 21 22 24 36 54 64 66 70 80 82 79 80 85 83 90 90 80 69 80 76 79 73 82 88 93 79 96
75 96 99 93 83 87 51 8 6 6 5 5 7 10 13 16 22 25 28 26 27 27 27 31 59 69 78 65 74 84 77 74 79 81 78 90 95 72 74 72 75 79 78 87 92 96 92
55 100 90 90 92 87 83 12 7 6 5 5 6 10 14 18 22 28 25 27 28 26 28 27 42 64 61 68 72 70 77 76 79 81 83 89 98 67 67 79 71 76 82 73 81 98 97
48 63 74 97 99 99 91 39 8 6 5 5 6 10 15 20 26 25 23 26 32 34 34 26 28 46 60 70 74 71 76 80 80 82 76 85 95 86 63 71 75 62 65 74 79 96 98
89 87 98 97 99 99 87 74 9 7 5 7 8 10 15 24 24 19 25 28 33 36 33 26 25 31 47 77 82 75 75 71 84 85 94 92 91 86 62 66 66 67 76 74 75 80 87
96 82 99 97 98 98 100 86 16 6 5 7 13 17 16 20 19 21 27 30 30 34 39 35 28 29 37 49 66 74 76 80 81 78 81 97 90 91 88 83 77 65 70 66 66 75 90
53 81 83 97 97 97 99 89 24 6 5 8 10 14 13 21 17 21 32 30 29 34 40 39 33 29 35 53 49 53 63 72 71 66 85 92 90 88 83 83 75 61 62 62 63 59 78
81 53 81 91 97 98 99 99 38 6 5 8 11 16 12 20 21 27 38 29 27 36 41 39 39 38 35 34 40 38 38 40 56 66 86 90 87 88 78 70 65 54 47 57 56 53 54
88 90 54 84 87 98 98 98 57 12 5 5 10 14 14 23 23 28 22 25 33 36 38 40 42 44 34 33 32 32 30 30 36 60 76 87 89 88 80 67 60 47 43 46 51 47 47
98 86 71 53 63 94 98 98 100 30 10 6 7 11 15 21 23 20 24 29 34 33 36 44 42 46 43 39 37 38 34 28 32 42 71 77 84 84 79 62 67 41 38 42 42 45 45
45 68 78 77 90 83 98 98 98 94 24 12 12 16 17 20 22 26 26 26 42 35 29 40 38 45 44 42 43 37 27 33 37 34 57 74 76 81 74 67 50 31 32 40 43 41 42
27 85 87 69 87 81 96 97 98 98 78 24 14 15 16 24 23 24 27 34 36 33 28 36 34 42 45 47 44 36 29 26 27 27 31 47 78 86 72 64 56 39 43 32 44 41 35
36 64 100 93 89 98 98 99 98 97 96 46 14 14 16 21 29 27 27 30 35 29 24 37 33 32 39 45 47 42 36 33 32 31 34 40 60 79 79 72 50 40 34 28 40 32 30
34 66 96 100 95 94 98 98 98 98 98 94 41 17 18 20 26 28 29 31 33 37 30 34 34 30 39 47 43 38 40 34 39 38 37 39 43 61 77 72 57 45 26 24 30 26 22
54 31 73 97 100 98 97 97 98 97 98 71 46 30 22 27 31 30 28 26 28 30 29 26 32 32 39 42 46 49 45 50 44 45 42 41 36 41 48 41 36 37 28 23 25 21 23
Wind_Speed
8 8 9 8 8 7 6 6 6 6 7 7 7 9 11 12 15 17 18 20 22 23 24 25 26 25 23 21 21 21 21 20 20 21 22 23 22 22 24 24 24 33 31 32 33 35 33
10 10 9 9 10 8 6 6 6 6 7 9 9 10 11 13 15 17 19 20 22 23 24 25 24 23 21 21 18 17 21 21 21 21 22 22 23 21 27 27 28 31 25 32 34 35 35
11 11 11 10 9 9 8 7 7 8 8 9 10 11 12 14 15 17 19 20 21 22 24 25 23 21 20 19 17 20 19 18 19 19 21 20 25 26 24 23 21 25 30 28 32 33 32
10 11 12 12 11 10 10 9 9 8 9 9 11 12 13 15 16 17 19 20 21 23 24 23 21 20 16 14 22 21 19 17 17 20 24 20 24 29 27 25 27 25 25 28 31 31 32
13 12 11 12 12 11 11 11 10 10 9 9 11 12 13 15 16 18 19 21 21 23 23 22 21 15 8 21 21 18 17 17 19 25 23 17 18 19 18 25 29 29 27 28 30 26 25
15 15 14 12 12 12 12 11 12 11 11 11 10 12 13 14 15 17 19 22 22 23 21 20 12 12 17 20 19 17 16 18 20 22 17 13 9 10 17 21 25 21 22 28 30 25 18
18 17 15 15 13 12 12 13 13 12 11 11 12 12 12 14 16 17 19 21 22 22 21 17 9 12 16 20 19 15 15 15 19 22 16 15 13 18 19 24 25 29 25 24 26 18 17
21 20 19 17 16 15 14 14 14 14 13 12 11 12 13 13 15 17 18 20 20 20 19 7 11 16 17 19 14 12 11 15 17 18 14 16 23 16 17 21 22 25 28 35 32 28 22
27 24 23 21 19 17 16 15 14 13 14 13 12 12 13 15 15 16 18 19 21 21 15 2 10 15 18 19 14 10 11 14 15 17 16 18 19 21 26 25 26 29 33 35 35 30 23
31 29 27 25 23 21 19 18 16 15 14 14 13 12 12 14 15 15 16 18 20 19 4 4 10 11 16 17 7 7 11 12 15 20 23 12 17 23 23 33 31 33 32 34 33 24 19
32 32 31 29 27 25 23 20 18 16 15 15 14 12 12 13 15 15 15 17 19 12 4 11 12 13 16 16 11 7 10 14 17 17 18 17 26 23 21 20 16 34 29 41 38 42 33
37 35 33 32 31 28 27 24 21 18 17 15 16 13 12 12 14 15 14 16 16 4 3 9 12 13 12 14 11 10 12 14 18 21 15 25 20 12 15 11 10 17 23 22 20 33 10
41 39 36 35 34 32 29 28 24 21 18 16 17 15 11 12 12 13 13 14 7 4 9 6 12 13 10 12 11 12 10 10 11 13 20 18 10 12 14 17 9 11 11 5 1 5 4
44 43 41 39 36 35 34 31 28 25 21 19 17 17 13 11 12 11 12 12 6 6 8 11 13 12 8 11 11 13 14 12 10 11 20 11 10 13 12 16 13 14 9 5 4 2 3
47 41 42 41 39 37 37 34 31 28 24 21 19 18 15 12 11 11 10 8 5 8 8 12 13 9 7 8 11 14 14 11 9 14 8 10 8 14 12 10 11 9 11 12 6 9 4
50 49 43 47 42 41 39 38 35 31 28 23 22 19 17 14 12 12 11 12 11 11 11 11 8 7 8 11 11 9 12 8 11 9 14 10 14 6 11 11 6 9 11 6 6 4 4
58 50 48 48 45 42 42 40 39 35 31 26 24 21 18 16 15 14 14 13 12 11 9 8 10 12 15 14 10 12 7 13 9 16 14 12 9 13 13 6 9 10 10 7 8 7 3
53 51 56 51 45 47 43 43 41 39 34 30 27 24 20 18 17 16 14 11 11 11 10 12 13 13 13 12 13 12 8 10 20 15 15 12 9 16 22 10 11 11 9 8 3 8 8
50 54 49 51 45 44 45 44 43 43 37 31 29 26 24 20 20 18 16 13 12 13 7 9 10 13 13 14 10 8 11 10 15 19 16 13 5 11 11 2 5 10 7 8 10 11 7
52 54 50 44 50 45 46 47 45 44 39 35 32 27 28 27 24 20 16 14 13 11 9 10 10 12 13 16 13 11 15 15 17 17 10 9 9 11 10 16 19 21 12 7 10 6 18
54 54 56 49 50 45 44 46 46 44 41 38 36 31 29 14 23 19 18 12 11 12 11 9 10 9 10 13 11 16 17 18 17 15 9 10 15 15 18 21 22 20 15 10 9 7 9
32 52 45 49 51 41 32 41 46 45 43 41 38 35 30 26 22 17 19 16 13 12 12 9 9 10 13 17 17 22 20 17 17 12 10 10 12 19 19 7 10 16 15 16 11 10 18
21 34 46 41 45 35 36 41 44 45 46 45 37 34 30 25 25 22 22 13 11 12 11 7 9 12 13 15 17 17 18 18 18 17 16 14 11 14 8 10 18 10 8 13 14 9 10
11 22 30 40 41 37 36 38 39 43 45 40 36 35 32 30 27 23 18 15 15 13 13 10 12 13 13 15 16 17 17 14 13 13 13 13 11 10 13 12 3 4 15 10 13 13 10
22 24 26 39 37 38 35 34 39 41 43 41 36 36 33 30 28 25 22 18 16 15 16 11 11 13 12 14 14 9 6 5 5 6 8 12 11 7 5 10 15 4 15 4 11 13 12
17 19 23 34 31 36 40 36 36 30 42 40 37 36 34 31 31 25 23 21 18 16 15 10 9 8 10 11 8 4 3 4 3 6 5 7 11 11 3 4 3 6 15 2 10 9 10
13 17 18 30 34 44 40 36 25 36 36 42 40 37 35 32 28 22 26 22 19 17 14 9 9 9 8 7 6 3 3 4 3 5 4 6 7 16 15 6 10 10 9 3 6 4 8
13 22 14 18 29 27 41 38 30 37 36 45 39 35 33 31 27 26 23 19 19 16 14 8 6 8 6 5 3 2 4 4 6 8 8 4 3 3 6 7 6 8 5 1 3 2 2
11 15 22 17 19 27 25 33 38 38 37 43 37 36 32 30 22 28 24 24 26 24 20 18 12 7 4 4 4 4 7 9 8 5 5 3 3 4 6 5 9 7 5 3 2 2 1
Wind_Direction
266 266 268 260 247 244 250 261 278 297 307 315 324 329 334 334 334 333 333 332 331 327 326 328 326 325 320 319 321 314 314 310 300 292 290 287 282 279 276 271 260 255 263 260 259 260 260
255 255 258 268 270 260 253 264 277 286 297 308 319 327 330 331 331 333 334 330 327 327 327 326 325 327 325 322 326 322 319 311 304 297 291 289 285 278 273 270 262 264 259 258 258 257 257
276 266 262 247 257 272 274 275 281 292 300 308 317 325 328 328 330 330 328 328 327 328 328 327 328 329 325 327 332 323 318 309 304 299 290 286 279 273 271 276 274 266 266 258 256 258 260
268 272 275 274 271 267 271 276 282 290 299 310 316 321 325 325 325 327 327 327 329 330 330 328 329 330 326 335 331 328 329 329 321 312 305 305 275 265 260 263 259 265 269 266 267 253 255
272 265 267 273 275 272 276 281 282 287 296 306 311 317 320 322 325 326 327 327 331 333 330 329 330 334 330 331 332 330 330 330 332 318 307 300 279 270 262 247 257 255 258 264 275 267 262
270 270 265 260 267 273 274 274 281 287 295 302 308 313 315 318 322 325 327 328 333 335 331 329 336 341 330 335 333 330 334 334 329 330 327 318 284 250 238 235 244 251 252 264 263 270 278
269 269 267 267 260 261 269 277 282 282 287 296 306 308 312 315 320 323 328 331 333 334 332 329 332 335 332 338 330 325 321 324 324 325 329 317 274 265 270 262 262 256 254 267 271 267 253
256 260 263 262 263 262 261 268 273 281 284 291 298 306 309 313 318 322 329 332 333 331 328 335 333 339 339 335 328 319 319 322 334 343 334 307 294 293 274 264 263 259 261 261 265 260 252
252 252 252 257 258 257 261 263 268 274 282 286 294 302 308 311 315 322 328 332 331 331 329 305 339 343 345 333 331 330 326 325 331 330 330 303 307 296 277 267 255 256 257 263 264 271 257
250 248 249 249 253 255 255 259 264 270 274 282 288 296 305 309 311 319 325 330 331 331 313 310 338 342 347 349 346 357 328 322 335 328 330 314 326 311 293 272 265 254 254 259 261 247 249
249 248 246 248 247 250 254 254 257 263 269 278 282 290 299 307 307 315 324 329 330 334 11 332 335 336 340 344 337 344 347 331 332 327 314 300 323 319 306 302 286 272 276 264 258 251 244
249 249 247 244 246 246 250 251 253 255 263 268 277 282 293 299 304 313 321 324 326 332 276 320 331 336 337 339 344 343 330 331 335 328 332 332 317 334 334 342 290 300 291 292 286 235 228
249 248 249 246 242 243 245 249 249 251 254 261 270 275 281 291 298 308 315 320 313 235 312 310 324 329 327 341 345 352 343 334 322 315 333 338 330 350 5 359 6 350 311 300 328 181 230
247 246 247 247 243 240 241 243 245 246 248 256 261 269 272 278 291 298 304 310 257 256 308 313 321 318 305 345 329 337 324 323 330 321 323 324 331 352 358 354 341 330 323 304 315 323 295
239 239 251 245 244 242 238 238 241 242 243 247 254 260 264 268 277 282 288 290 264 293 308 315 315 295 302 330 316 309 317 299 312 331 317 309 292 322 326 324 331 339 310 334 306 263 279
231 237 239 247 240 241 238 235 236 237 240 241 248 253 257 263 261 264 269 274 276 287 301 309 299 271 280 313 308 311 312 304 312 330 327 311 298 317 326 314 287 302 319 313 312 301 291
227 234 237 241 246 240 237 233 233 232 234 235 240 246 250 252 254 250 258 271 282 285 290 294 287 277 289 296 293 306 280 303 319 318 315 293 280 300 325 326 314 296 301 303 334 288 301
230 229 237 231 238 232 232 231 228 230 227 229 233 238 244 243 243 247 257 262 279 282 287 283 287 280 284 285 297 298 263 286 329 325 321 303 290 291 312 292 294 315 289 284 331 309 315
226 225 234 228 228 235 229 228 224 226 225 224 229 234 237 237 239 250 251 255 272 277 281 282 280 286 286 280 295 278 286 300 316 323 308 296 290 310 338 349 338 330 344 293 274 335 332
229 229 230 232 238 225 224 222 220 222 220 219 222 227 232 238 240 247 244 252 257 269 275 283 289 287 286 282 276 269 282 301 302 318 310 281 281 292 269 289 303 300 289 330 261 328 312
233 228 231 233 232 228 220 216 215 216 217 216 218 224 228 234 233 234 234 238 251 268 266 279 292 299 282 281 286 274 279 282 294 300 284 291 298 295 294 284 286 284 276 297 284 271 272
241 232 235 240 233 226 222 213 209 209 212 216 217 218 223 229 232 216 228 241 247 250 258 277 285 288 286 287 293 293 293 298 302 296 277 293 292 319 307 295 317 300 270 265 260 240 266
242 246 234 233 245 214 221 213 208 207 211 216 214 220 225 231 233 229 237 246 245 240 259 264 296 291 289 295 293 293 293 294 285 281 274 277 286 316 295 319 306 303 11 234 246 234 263
267 255 226 226 236 238 221 211 211 209 212 214 215 219 220 226 231 236 235 236 241 246 255 277 288 293 300 296 299 298 294 292 285 277 268 257 267 293 291 327 334 335 308 289 243 231 250
256 260 250 226 218 233 228 217 208 209 209 211 211 219 223 228 234 234 236 241 240 248 259 264 277 285 291 296 307 312 316 311 312 309 275 259 255 270 282 301 295 30 9 317 194 215 242
248 234 233 224 215 214 214 228 210 219 205 209 211 216 222 226 233 235 234 235 244 250 253 255 265 275 290 294 300 283 304 314 317 314 302 277 240 231 288 314 282 337 345 336 192 243 253
241 221 198 215 221 219 222 215 227 218 216 205 210 214 220 222 230 232 232 234 237 245 245 230 249 269 276 280 279 272 277 293 301 290 289 287 256 239 246 266 284 331 337 137 179 250 232
238 226 226 219 231 235 217 219 221 215 216 203 207 212 218 222 227 230 232 230 227 225 232 231 238 253 244 245 252 265 272 278 285 294 292 279 260 235 207 227 282 341 354 217 257 249 187
314 252 229 200 194 208 197 210 208 207 217 204 206 211 215 219 222 226 228 233 235 246 243 236 223 221 229 234 246 271 280 287 286 291 284 285 282 271 241 273 288 302 328 305 232 182 171